TimeCDT,TemperatureF,Dew PointF,Humidity,Sea Level PressureIn,VisibilityMPH,Wind Direction,Wind SpeedMPH,Gust SpeedMPH,PrecipitationIn,Events,Conditions,WindDirDegrees,DateUTC
12:53 AM,75.9,73.0,91,30.07,10.0,East,3.5,-,N/A,,Clear,100,2013-08-21 05:53:00
1:53 AM,75.0,72.0,90,30.06,10.0,ESE,3.5,-,N/A,,Clear,120,2013-08-21 06:53:00
2:53 AM,73.9,72.0,93,30.06,10.0,NNE,3.5,-,N/A,,Clear,30,2013-08-21 07:53:00
3:53 AM,73.9,72.0,93,30.05,10.0,NE,4.6,-,N/A,,Clear,50,2013-08-21 08:53:00
4:53 AM,73.9,71.1,91,30.05,10.0,Calm,Calm,-,N/A,,Clear,0,2013-08-21 09:53:00
5:53 AM,73.0,71.1,93,30.06,9.0,NE,5.8,-,N/A,,Clear,50,2013-08-21 10:53:00
6:53 AM,73.0,71.1,93,30.07,9.0,NE,3.5,-,N/A,,Clear,40,2013-08-21 11:53:00
7:53 AM,75.0,72.0,90,30.09,10.0,NE,5.8,-,N/A,,Clear,50,2013-08-21 12:53:00
8:53 AM,79.0,73.9,84,30.10,10.0,East,6.9,-,N/A,,Clear,80,2013-08-21 13:53:00
9:21 AM,80.6,75.2,84,30.09,10.0,ENE,8.1,-,N/A,,Partly Cloudy,70,2013-08-21 14:21:00
9:53 AM,82.9,75.0,77,30.12,10.0,NE,6.9,-,N/A,,Scattered Clouds,50,2013-08-21 14:53:00
10:53 AM,87.1,75.0,67,30.12,10.0,ENE,9.2,-,N/A,,Mostly Cloudy,60,2013-08-21 15:53:00
11:49 AM,87.8,73.4,62,30.09,10.0,ENE,9.2,-,N/A,,Scattered Clouds,60,2013-08-21 16:49:00
11:53 AM,87.1,73.9,65,30.12,10.0,ENE,8.1,-,N/A,,Scattered Clouds,70,2013-08-21 16:53:00
12:53 PM,91.0,73.9,57,30.09,10.0,NE,8.1,-,N/A,,Partly Cloudy,50,2013-08-21 17:53:00
1:53 PM,91.0,73.9,57,30.08,10.0,East,6.9,-,N/A,,Clear,90,2013-08-21 18:53:00
2:31 PM,89.6,73.4,59,30.05,10.0,SE,12.7,16.1,N/A,Thunderstorm,Scattered Clouds,130,2013-08-21 19:31:00
2:53 PM,89.1,73.9,61,30.07,3.0,ESE,17.3,-,N/A,Thunderstorm,Haze,120,2013-08-21 19:53:00
3:15 PM,87.8,73.4,62,30.04,10.0,ESE,11.5,-,0.00,Rain,Light Rain,110,2013-08-21 20:15:00
3:53 PM,91.0,75.0,59,30.05,10.0,SE,8.1,-,0.00,,Clear,140,2013-08-21 20:53:00
4:53 PM,91.0,73.9,57,30.04,10.0,ESE,9.2,-,N/A,,Clear,120,2013-08-21 21:53:00
5:53 PM,91.0,72.0,53,30.04,10.0,SSE,9.2,-,N/A,,Clear,150,2013-08-21 22:53:00
6:53 PM,87.1,73.9,65,30.04,10.0,South,6.9,-,N/A,,Clear,170,2013-08-21 23:53:00
7:53 PM,84.9,73.9,69,30.05,10.0,East,5.8,-,N/A,,Partly Cloudy,100,2013-08-22 00:53:00
8:53 PM,81.0,75.0,82,30.04,10.0,SE,3.5,-,N/A,,Clear,130,2013-08-22 01:53:00
9:53 PM,80.1,73.9,81,30.07,10.0,East,5.8,-,N/A,,Clear,100,2013-08-22 02:53:00
10:53 PM,79.0,73.0,82,30.08,10.0,East,6.9,-,N/A,,Clear,90,2013-08-22 03:53:00
11:53 PM,78.1,73.0,84,30.09,10.0,ESE,6.9,-,N/A,,Clear,120,2013-08-22 04:53:00